Location: Chiroubles
(46.1812°N, 4.6660°E)
Time: 11:11:37
(UTC+00:00)

SR - Pass Details

Date: 28 November 2020
Orbit: 575 x 880 km, 66.7° (Epoch: 20 January)

Event Time Altitude Azimuth Distance (km) Brightness Sun altitude
Rises 18:40:04 0° 222° (SW) 2,803 ? -27.3°
Reaches altitude 10° 18:42:15 10° 227° (SW) 1,928 ? -27.7°
Enters shadow 18:45:43 50° 263° (W) 790 ? -28.3°
